Theta_e
280 280 281 281 281 282 283 283 284 284 284 284 285 285 285 286 285 284 284 283 282 282 282 282 282 281 282 281 281 280 280 280 280 280 280 280 279 279 279 278 278 278
279 280 280 280 281 283 283 284 284 284 284 284 284 285 284 284 283 283 283 282 282 282 282 282 281 281 281 281 280 280 279 279 279 280 279 279 279 279 279 279 279 278
279 279 279 279 279 280 281 282 282 283 282 283 283 283 283 284 283 283 283 282 282 282 281 281 281 281 281 281 280 280 280 279 279 280 280 279 279 279 279 279 279 278
278 278 279 279 280 280 281 281 280 281 281 281 281 282 282 283 282 281 281 282 281 281 281 281 281 281 281 281 281 280 280 280 280 280 279 279 279 279 279 279 279 278
275 276 276 277 277 278 278 278 278 279 280 280 280 279 280 281 281 281 281 281 281 281 281 281 281 281 281 281 281 280 280 280 280 280 279 279 279 279 279 279 279 278
274 275 275 275 275 275 275 275 275 276 277 278 279 280 280 280 280 280 280 280 280 281 281 281 281 281 281 280 280 280 280 280 280 280 279 279 279 279 279 278 278 278
273 273 273 274 273 274 273 274 274 274 275 275 276 276 277 278 278 278 279 279 280 280 280 280 280 280 280 280 280 279 280 280 279 279 279 278 278 278 278 278 277 277
272 273 273 273 273 273 273 273 273 273 273 274 274 274 275 275 275 276 277 277 277 277 278 279 279 279 279 279 279 278 278 278 278 278 278 278 278 277 277 277 277 276
272 272 272 272 272 272 272 272 272 272 273 272 272 273 273 273 274 274 275 275 276 276 276 276 277 277 278 277 277 277 277 277 277 277 277 277 276 276 277 277 276 275
270 270 270 271 271 271 271 272 272 272 272 272 272 272 272 272 272 273 273 273 273 273 274 274 275 275 275 275 276 276 276 277 276 276 276 276 276 276 276 276 275 275
268 268 268 269 269 270 270 270 271 271 271 271 271 271 271 271 271 272 271 271 271 271 271 272 272 273 273 273 273 274 274 275 275 275 275 275 275 276 276 275 275 275
267 267 267 267 267 268 268 269 269 270 270 270 270 270 270 270 270 270 270 269 270 270 270 270 271 271 271 271 271 271 272 272 272 273 274 274 274 274 274 274 274 274
266 266 266 266 266 267 267 267 267 268 269 269 270 269 269 269 269 269 269 269 269 269 269 269 269 269 270 270 271 271 270 268 269 271 271 272 272 273 273 273 273 274
265 266 266 266 266 266 266 266 266 266 267 267 268 268 269 269 268 268 268 268 268 268 268 268 268 269 269 270 270 269 268 267 267 267 268 269 269 270 271 271 272 272
265 265 265 265 265 265 265 265 265 265 266 266 266 266 268 269 269 269 268 268 268 268 267 267 267 267 268 270 271 270 267 267 267 267 266 267 267 267 268 269 269 270
265 265 265 265 264 264 264 264 264 264 265 265 265 265 266 267 268 268 268 267 267 267 267 267 267 267 269 273 275 272 269 267 266 266 265 265 266 267 267 267 268 268
264 264 264 264 264 264 264 263 263 264 264 264 264 265 265 267 268 268 268 267 266 266 266 266 266 267 270 275 277 278 274 269 268 266 266 265 265 265 266 268 268 268
264 264 263 263 263 263 263 263 263 263 263 263 263 264 266 267 267 267 267 267 266 265 265 266 266 268 273 274 276 277 277 274 269 268 267 266 265 264 265 266 267 268
263 263 263 262 263 262 262 262 262 262 262 262 262 264 265 265 265 265 265 266 265 265 265 265 264 268 272 274 275 276 277 276 273 269 269 268 266 265 264 265 265 267
262 262 261 262 262 262 262 261 262 261 262 262 263 264 264 264 264 264 264 264 265 265 265 265 264 267 271 274 274 275 276 276 273 270 270 269 267 267 265 266 266 267
262 261 261 261 261 261 261 260 261 260 261 261 262 263 263 263 263 263 264 264 265 265 266 266 266 269 272 273 274 275 275 275 273 271 269 267 266 264 265 266 266 266
261 260 260 260 260 259 259 259 260 259 259 261 261 262 262 263 263 263 263 263 265 266 267 266 266 269 271 273 273 274 275 273 272 271 269 267 267 267 267 267 265 265
259 259 258 258 258 258 258 258 258 258 259 260 260 261 261 261 260 261 262 262 263 263 263 263 264 266 270 272 273 274 273 272 271 270 269 268 268 269 269 268 267 266
258 257 256 256 256 256 256 257 257 257 257 259 259 260 259 259 260 260 261 261 261 261 262 263 263 266 268 270 272 273 272 270 270 270 269 269 270 269 267 268 268 271
257 257 256 256 255 255 255 255 256 256 257 258 258 258 257 258 259 259 259 260 260 261 263 264 265 265 266 268 270 271 270 269 269 268 268 268 269 269 269 268 268 269
256 256 255 255 255 254 255 255 255 255 256 257 256 256 256 257 257 257 257 258 259 261 263 263 262 262 264 266 269 270 271 268 268 266 266 266 268 268 268 267 267 267
Wind_Speed
3 2 0 3 5 5 6 6 6 7 7 6 7 7 8 9 7 8 7 6 6 7 7 7 7 7 6 6 6 6 6 7 6 6 7 7 7 8 8 8 8 7
3 3 3 3 3 3 1 2 6 8 8 7 7 7 6 6 8 8 8 8 8 9 7 7 6 7 7 6 6 7 6 6 7 5 7 8 8 8 9 9 9 7
5 5 4 3 3 2 2 2 3 4 3 3 3 4 5 6 7 7 8 8 8 8 7 7 6 7 7 7 6 7 7 7 8 7 7 9 7 8 8 7 7 8
12 10 7 5 4 4 3 4 4 4 3 3 3 3 3 2 1 1 3 4 5 5 5 5 6 6 7 7 6 6 7 7 7 6 7 6 7 8 8 7 8 7
13 12 12 11 10 9 9 8 7 6 4 2 3 3 1 0 1 1 1 2 3 3 4 6 6 6 6 6 6 7 6 7 6 6 7 8 7 7 8 7 8 8
14 12 12 12 12 11 11 11 9 9 8 7 6 5 3 0 1 2 3 3 3 4 3 3 4 4 5 6 6 7 7 7 7 8 9 9 8 7 6 7 8 9
14 13 14 12 13 13 12 12 11 10 10 8 7 9 7 6 4 2 2 3 4 5 6 6 6 6 6 6 6 7 7 8 7 8 9 8 8 8 7 7 8 9
14 12 12 12 13 13 13 12 11 11 10 9 10 8 9 8 8 6 5 3 2 3 3 4 5 6 6 6 7 7 8 6 7 7 8 8 7 8 8 7 8 9
13 13 13 13 14 12 13 12 11 11 10 10 10 9 8 8 8 8 7 6 5 4 3 3 3 4 4 4 6 7 8 7 7 8 8 8 8 9 8 7 7 8
13 12 14 13 13 12 13 12 11 10 10 11 10 9 10 9 9 9 8 8 8 7 6 5 4 3 3 3 5 6 6 7 7 7 7 8 8 8 7 7 8 7
14 13 13 13 13 11 12 12 11 11 10 10 10 10 10 9 9 9 9 9 8 8 7 7 6 5 5 3 3 3 4 5 6 5 6 7 7 7 7 7 7 8
13 13 13 13 12 11 12 11 11 11 10 9 9 9 9 9 9 8 8 8 8 8 7 7 6 6 6 5 4 3 3 3 4 4 5 5 6 6 7 6 8 8
12 12 11 11 11 10 10 10 10 10 11 10 9 8 8 9 9 8 7 7 7 7 7 7 6 5 6 6 5 4 3 3 3 4 4 4 5 5 6 6 7 7
10 10 10 10 10 10 10 10 10 10 10 10 10 10 9 8 8 7 7 5 6 6 6 6 6 6 6 6 5 4 4 4 3 3 4 4 4 4 4 5 6 6
8 8 8 9 10 10 10 11 10 10 10 9 10 9 9 8 8 7 7 8 6 6 6 6 5 5 5 6 6 5 3 3 3 3 3 4 4 4 4 4 5 5
8 8 8 8 9 9 10 10 9 9 9 9 9 8 8 8 7 6 6 7 7 7 6 5 6 5 8 14 11 6 5 3 2 3 3 3 4 5 5 4 5 4
8 8 8 9 9 9 9 9 10 8 8 8 8 8 8 8 7 7 7 6 6 6 7 6 6 6 14 15 15 14 7 4 2 3 2 1 2 3 4 6 5 5
7 7 8 8 9 9 9 9 8 9 8 9 8 8 9 8 9 9 8 7 6 6 6 7 6 9 17 16 15 15 12 7 3 2 1 1 1 2 3 4 5 6
7 7 8 8 9 8 8 9 8 9 9 9 9 8 8 8 8 8 8 8 7 8 7 7 6 10 16 17 16 16 15 12 5 1 1 2 2 3 3 4 4 4
7 7 8 8 8 8 9 9 9 10 9 8 7 7 7 8 7 8 8 7 8 8 7 6 6 7 15 17 16 16 16 13 5 1 2 2 3 4 3 4 4 4
7 7 7 8 8 8 8 8 8 8 8 8 8 8 9 9 9 9 9 9 9 9 8 6 5 13 18 18 17 17 16 13 6 4 4 4 4 4 4 4 4 5
6 7 7 7 7 8 9 9 8 9 9 8 8 7 7 7 8 9 10 11 10 10 9 9 8 16 18 18 18 17 17 8 6 6 6 5 5 4 4 4 4 4
6 5 6 6 7 7 7 8 8 9 8 8 9 9 8 9 9 8 8 8 10 10 10 9 8 12 17 17 15 16 12 7 6 5 5 5 6 4 4 4 4 4
4 4 5 5 5 7 7 7 6 5 5 6 7 9 9 10 9 9 9 8 10 10 10 9 9 10 14 15 16 16 13 8 8 7 8 6 5 4 4 5 5 8
4 4 4 5 5 6 6 7 7 6 6 5 5 6 7 7 7 8 8 8 9 10 14 12 8 9 15 17 18 17 13 8 7 7 8 8 7 6 4 2 3 6
3 4 4 4 7 6 6 6 6 5 6 5 5 5 6 6 6 6 8 7 8 9 8 8 10 8 10 18 18 18 17 10 7 7 7 9 8 8 7 5 6 5
Wind_Direction
16 357 86 175 179 170 166 170 182 182 190 190 194 202 195 204 180 189 199 198 202 201 201 199 193 194 192 187 188 189 196 204 207 197 201 201 210 203 210 207 205 207
50 70 52 22 8 356 331 216 189 184 189 194 205 200 200 177 185 179 187 194 198 204 201 198 195 196 194 190 189 193 202 200 211 194 203 206 212 207 218 209 211 209
36 51 55 62 64 55 47 32 2 332 321 278 230 208 205 193 189 188 190 194 197 204 202 197 195 196 197 200 194 198 203 204 213 203 208 214 210 213 218 212 214 205
22 19 21 35 51 60 58 54 32 35 30 29 10 1 11 358 335 217 198 190 196 203 206 200 202 199 200 203 198 205 209 215 217 204 216 218 216 216 220 211 219 213
33 29 27 26 20 25 31 39 27 23 32 17 29 32 56 59 112 192 212 235 230 227 213 213 207 208 201 204 203 213 211 219 217 210 219 222 219 213 223 212 220 220
36 36 36 35 33 33 35 32 23 17 13 13 7 11 17 107 152 188 204 212 215 222 236 238 234 232 219 218 210 219 217 218 219 212 222 226 225 216 218 215 220 223
36 34 33 33 36 35 38 32 27 23 20 11 23 24 8 11 360 332 257 217 206 208 213 218 215 219 212 215 220 229 228 227 224 217 222 227 223 225 215 215 219 224
36 35 33 33 35 33 34 29 27 25 16 19 30 21 22 23 21 8 356 333 288 252 238 230 227 222 214 204 210 216 223 220 225 224 227 230 221 230 219 216 218 224
34 33 30 30 32 30 28 26 22 22 19 21 22 18 18 24 19 21 22 23 22 3 329 293 257 246 235 215 218 219 222 223 219 219 223 225 226 230 227 223 222 225
30 27 29 28 29 26 23 20 18 18 17 20 17 16 16 14 18 16 23 27 34 28 22 10 352 323 287 244 230 226 228 231 229 224 226 227 227 230 229 224 226 228
27 23 24 23 22 18 17 14 13 14 15 16 13 13 13 11 11 13 17 21 23 19 15 17 12 3 354 332 301 266 244 243 240 235 231 233 232 232 231 226 227 224
25 22 20 20 18 16 14 11 8 9 9 11 13 8 10 12 10 10 12 8 12 9 11 10 8 11 14 9 356 337 307 277 263 253 248 241 242 238 235 231 231 231
23 20 17 15 13 12 11 9 9 3 5 6 5 3 8 7 6 8 5 7 3 5 6 1 359 5 7 1 355 355 345 319 294 281 266 258 248 245 242 240 238 237
21 16 16 14 10 10 10 8 7 4 3 0 360 360 2 2 2 0 355 2 1 1 356 354 355 360 359 350 342 338 343 337 320 300 293 283 275 264 257 248 245 242
21 19 16 15 11 11 11 7 5 1 358 357 359 354 354 350 352 353 355 358 360 0 355 355 359 351 346 335 324 328 337 336 319 309 296 293 289 281 269 261 257 249
21 20 19 16 16 13 10 4 2 358 355 355 354 348 345 344 343 345 355 352 352 352 356 354 350 343 329 326 332 332 328 326 323 305 295 292 298 304 303 290 271 264
22 18 13 16 12 10 6 3 359 353 351 351 347 344 342 345 339 348 354 345 349 347 347 346 341 332 327 333 332 330 328 318 308 304 295 289 282 285 292 299 300 291
15 13 14 12 11 6 4 357 352 353 351 351 345 344 348 348 353 353 344 343 343 342 338 332 331 324 333 331 328 324 324 318 312 320 333 330 302 287 281 287 290 294
11 14 6 4 4 4 357 357 353 353 350 348 345 339 342 346 344 344 337 340 335 331 326 321 322 317 329 329 326 322 317 317 310 38 13 335 318 304 290 283 284 288
12 7 6 1 358 356 351 352 353 351 348 338 336 337 340 338 336 337 333 330 327 317 309 305 309 298 323 326 324 319 315 310 300 268 283 289 293 284 278 279 273 278
7 5 1 358 353 354 349 349 348 340 342 338 340 338 336 336 337 333 332 327 322 314 306 303 295 322 324 323 324 321 316 311 300 299 296 288 269 253 255 258 258 259
3 357 355 351 350 350 349 346 345 342 337 332 334 329 325 327 331 330 327 327 321 321 326 326 324 320 319 321 322 322 317 310 298 289 288 281 274 264 258 251 248 257
355 352 346 347 345 346 343 342 337 333 331 329 331 328 332 332 325 322 318 319 321 322 317 307 307 309 317 322 324 325 326 313 301 284 276 275 273 269 253 251 258 263
343 345 338 339 340 339 334 331 326 312 310 315 319 323 330 324 322 320 319 319 317 312 305 307 303 314 336 336 330 327 332 333 328 320 301 287 282 271 267 265 258 287
331 337 334 332 331 324 325 321 319 315 305 303 303 318 310 306 309 309 311 314 311 306 308 309 323 340 337 332 327 324 326 326 328 325 320 315 306 293 270 247 284 304
327 332 328 327 318 315 314 310 306 310 301 305 314 307 303 304 299 300 299 302 301 299 309 335 328 321 326 325 325 321 320 320 323 331 325 321 319 309 303 296 282 260